SCP
0 0 0 0 0 0 0 0 0 0 0 0 0 0 0 0 0 0 0 0 0 0 0 0 0 0 0 0 0 0 0 0 0 0 0 0 0 0 0 0 0 0 0 0
0 0 0 0 0 0 0 0 0 0 0 0 0 0 0 0 0 0 0 0 0 0 0 0 0 0 0 0 0 0 0 0 0 0 0 0 0 0 0 0 0 0 0 0
0 0 0 0 0 0 0 0 0 0 0 0 0 0 0 0 0 0 0 0 0 0 0 0 0 0 0 0 0 0 0 0 0 0 0 0 0 0 0 0 0 0 0 0
0 0 0 0 0 0 0 0 0 0 0 0 0 0 0 0 0 0 0 0 0 0 0 0 0 0 0 0 0 0 0 0 0 0 0 0 0 0 0 0 0 0 0 0
0 0 0 0 0 0 0 0 0 0 0 0 0 0 0 0 0 0 0 0 0 0 0 0 0 0 0 0 0 0 0 0 0 0 0 0 0 0 0 0 0 0 0 0
0 0 0 0 0 0 0 0 0 0 0 0 0 0 0 0 0 0 0 0 0 0 0 0 0 0 0 0 0 0 0 0 0 0 0 0 0 0 0 0 0 0 0 0
0 0 0 0 0 0 0 0 0 0 0 0 0 0 0 0 0 0 0 0 0 0 0 0 0 0 0 0 0 0 0 0 0 0 0 0 0 0 0 0 0 0 0 0
0 0 0 0 0 0 0 0 0 0 0 0 0 0 0 0 0 0 0 0 0 0 0 0 0 0 0 0 0 0 0 0 0 0 0 0 0 0 0 0 0 0 0 0
0 0 0 0 0 0 0 0 0 0 0 0 0 0 0 0 0 0 0 0 0 0 0 0 0 0 0 0 0 0 0 0 0 0 0 0 0 0 0 0 0 0 0 0
0 0 0 0 0 0 0 0 0 0 0 0 0 0 0 0 0 0 0 0 0 0 0 0 0 0 0 0 0 0 0 0 0 0 0 0 0 0 0 0 0 0 0 0
0 0 0 0 0 0 0 0 0 0 0 0 0 0 0 0 0 0 0 0 0 0 0 0 0 0 0 0 0 0 0 0 0 0 0 0 0 0 0 0 0 0 0 0
0 0 0 0 0 0 0 0 0 0 0 0 0 0 0 0 0 0 0 0 0 0 0 0 0 0 0 0 0 0 0 0 0 0 0 0 0 0 0 0 0 0 0 0
0 0 0 0 0 0 0 0 0 0 0 0 0 0 0 0 0 0 0 0 0 0 0 0 0 0 0 0 0 0 0 0 0 0 0 0 0 0 0 0 0 0 0 0
0 0 0 0 0 0 0 0 0 0 0 0 0 0 0 0 0 0 0 0 0 0 0 0 0 0 0 0 0 0 0 0 0 0 0 0 0 0 0 0 0 0 0 0
0 0 0 0 0 0 0 0 0 0 0 0 0 0 0 0 0 0 0 0 0 0 0 0 0 0 0 0 0 0 0 0 0 0 0 0 0 0 0 0 0 0 0 0
0 0 0 0 0 0 0 0 0 0 0 0 0 0 0 0 0 0 0 0 0 0 0 0 0 0 0 0 0 0 0 0 0 0 0 0 0 0 0 0 0 0 0 0
0 0 0 0 0 0 0 0 0 0 0 0 0 0 0 0 0 0 0 0 0 0 0 0 0 0 0 0 0 0 0 0 0 0 0 0 0 0 0 0 0 0 0 0
0 0 0 0 0 0 0 0 0 0 0 0 0 0 0 0 0 0 0 0 0 0 0 0 0 0 0 0 0 0 0 0 0 0 0 0 0 0 0 0 0 0 0 0
0 0 0 0 0 0 0 0 0 0 0 0 0 0 0 0 0 0 0 0 0 0 0 0 0 0 0 0 0 0 0 0 0 0 0 0 0 0 0 0 0 0 0 0
0 0 0 0 0 0 0 0 0 0 0 0 0 0 0 0 0 0 0 0 0 0 0 0 0 0 0 0 0 0 0 0 0 0 0 0 0 0 0 0 0 0 0 0
0 0 0 0 0 0 0 0 0 0 0 0 0 0 0 0 0 0 0 0 0 0 0 0 0 0 0 0 0 0 0 0 0 0 0 0 0 0 0 0 0 0 0 0
0 0 0 0 0 0 0 0 0 0 0 0 0 0 0 0 0 0 0 0 0 0 0 0 0 0 0 0 0 0 0 0 0 0 0 0 0 0 0 0 0 0 0 0
0 0 0 0 0 0 0 0 0 0 0 0 0 0 0 0 0 0 0 0 0 0 0 0 0 0 0 0 0 0 0 0 0 0 0 0 0 0 0 0 0 0 0 0
0 0 0 0 0 0 0 0 0 0 0 0 0 0 0 0 0 0 0 0 0 0 0 0 0 0 0 0 0 0 0 0 0 0 0 0 0 0 0 0 0 0 0 0
0 0 0 0 0 0 0 0 0 0 0 0 0 0 0 0 0 0 0 0 0 0 0 0 0 0 0 0 0 0 0 0 0 0 0 0 0 0 0 0 0 0 0 0
0 0 0 0 0 0 0 0 0 0 0 0 0 0 0 0 0 0 0 0 0 0 0 0 0 0 0 0 0 0 0 0 0 0 0 0 0 0 0 0 0 0 0 0
Wind_Speed
2 4 7 12 11 5 6 6 5 7 3 5 9 13 14 7 7 11 12 12 14 19 15 8 9 9 8 8 8 9 9 9 9 6 5 5 4 4 3 3 5 7 8 9
3 7 11 4 3 3 4 4 5 6 2 5 7 13 13 11 10 13 15 16 17 16 11 11 11 11 12 12 11 11 11 11 10 6 4 4 5 4 4 4 4 5 7 8
12 6 5 7 5 6 6 8 7 7 3 3 5 11 8 10 8 8 11 13 14 18 19 14 14 15 14 15 15 13 13 12 11 9 7 7 5 4 3 3 3 4 5 6
8 4 5 5 8 10 8 9 8 5 2 6 2 9 8 8 8 10 15 15 18 19 17 14 14 15 18 17 13 13 13 13 12 11 11 12 9 7 6 5 5 5 5 7
10 8 8 9 10 12 7 3 5 4 4 5 3 7 11 5 9 12 15 18 19 18 15 15 15 17 14 12 13 12 13 13 12 12 13 12 8 6 7 7 8 7 5 6
5 5 7 8 3 7 7 7 5 4 3 8 8 10 13 9 12 12 13 15 15 12 10 10 9 9 10 11 12 13 14 14 13 13 13 12 12 13 14 12 10 7 5 5
4 5 4 4 7 4 5 6 2 3 2 12 5 9 15 10 10 12 13 13 9 7 6 5 8 11 13 15 15 15 16 15 14 14 13 12 13 16 18 16 14 12 8 5
7 9 11 9 11 11 9 12 11 9 8 8 4 14 12 7 7 9 12 11 8 6 5 6 8 11 13 15 16 16 16 14 14 14 13 11 13 11 11 14 14 14 10 9
11 10 3 7 4 14 8 8 7 5 2 7 11 12 11 6 10 13 12 10 11 8 7 7 7 9 11 14 16 16 15 13 14 14 12 12 13 11 11 12 11 10 9 9
9 6 2 2 2 1 7 9 6 7 6 9 11 10 9 8 14 12 9 10 10 6 5 5 6 8 9 10 10 11 12 13 12 13 13 11 12 11 11 11 12 11 11 11
8 7 2 3 10 12 8 7 7 6 6 7 8 14 9 11 10 9 10 8 6 6 5 5 6 7 7 8 9 10 11 11 12 13 12 12 12 11 11 11 12 12 12 13
8 5 5 8 6 4 8 10 11 9 7 6 7 17 4 7 6 6 7 5 4 4 4 4 6 6 8 9 10 12 12 13 13 13 12 13 13 13 13 13 12 12 13 13
9 7 3 3 3 3 6 7 11 8 6 8 11 18 0 1 3 5 7 7 5 4 4 4 6 8 10 11 11 12 13 13 12 13 13 14 15 15 16 15 14 13 13 12
7 8 11 13 8 9 9 9 11 11 10 14 22 26 10 4 4 6 7 7 6 5 6 7 8 9 10 11 12 13 13 12 13 14 15 16 17 17 16 15 15 14 14 14
8 10 12 14 7 6 8 11 14 19 21 18 22 25 29 11 11 11 10 9 8 7 8 10 11 11 11 12 13 14 14 13 14 15 16 16 14 14 14 15 15 14 14 14
9 9 9 15 15 11 10 13 18 22 20 24 24 33 28 8 9 11 12 12 12 11 11 12 12 12 14 16 16 15 16 15 14 16 16 13 14 15 15 15 15 15 14 12
7 8 9 16 13 10 21 26 22 16 15 14 25 37 23 13 13 15 15 12 12 13 12 12 13 14 15 16 16 17 16 13 14 15 14 14 15 16 16 15 15 16 16 13
10 10 8 9 11 23 17 11 19 23 24 21 20 24 20 16 12 12 10 10 12 11 11 10 10 12 13 12 12 11 10 12 14 14 13 13 15 15 15 16 17 16 13 14
15 14 11 10 18 17 12 8 11 16 22 25 28 29 27 17 9 15 9 9 11 10 9 9 9 9 8 10 11 11 11 12 13 14 14 14 14 15 15 17 17 13 12 12
18 17 15 15 15 12 11 6 8 10 15 14 17 24 26 13 11 16 2 3 5 5 5 5 5 4 5 6 9 11 12 13 15 15 12 11 12 13 14 14 12 9 10 10
13 16 22 23 21 11 7 3 9 11 12 4 9 14 14 11 11 4 3 2 3 4 5 4 3 1 1 4 9 10 10 12 10 8 8 9 10 10 9 8 7 8 7 8
10 10 13 14 18 14 6 8 11 8 1 1 2 3 4 4 1 1 2 3 4 4 5 4 4 4 3 3 7 7 7 6 7 8 9 9 9 8 8 9 8 8 9 9
8 8 5 7 7 3 5 6 4 2 3 3 3 3 3 3 2 1 2 2 3 4 5 4 5 6 6 4 5 5 4 7 8 9 8 8 9 8 9 10 10 9 9 8
6 4 5 6 7 6 5 4 4 3 3 2 2 2 3 3 3 2 2 2 3 4 5 4 6 7 7 7 7 5 5 7 9 8 8 8 8 8 8 7 8 9 9 9
6 4 5 8 7 4 5 6 5 3 2 3 2 2 3 4 3 3 3 3 4 5 5 5 7 8 7 7 8 7 5 6 8 7 7 6 6 7 7 6 6 8 7 9
5 5 6 6 4 4 4 3 4 5 4 4 3 2 2 4 5 5 5 5 5 6 6 8 8 8 8 8 9 8 6 5 7 7 6 5 4 4 4 5 3 6 6 9
Wind_Direction
65 110 194 206 198 179 166 180 221 246 237 193 236 254 264 253 227 247 249 244 241 244 246 214 200 193 190 193 192 187 179 171 161 155 155 145 131 114 100 100 116 130 136 137
79 236 224 186 166 175 169 205 244 274 243 211 260 265 261 248 229 229 235 239 239 244 244 217 201 194 196 195 194 190 186 179 177 168 146 128 122 111 98 99 100 117 133 138
186 221 184 154 166 186 214 209 222 236 325 281 288 289 259 258 234 245 239 239 240 237 239 224 205 203 198 198 195 192 187 182 177 160 137 117 104 102 114 119 111 106 127 130
225 216 136 166 192 176 234 217 212 221 263 278 219 279 272 254 258 249 248 244 244 242 238 227 207 204 204 201 190 188 183 182 176 166 166 165 165 163 168 154 140 127 122 128
225 187 176 197 202 177 208 153 167 183 203 273 220 252 266 235 256 254 247 245 245 243 234 227 213 207 202 189 185 184 181 182 177 176 177 178 166 144 138 136 137 132 124 125
241 195 199 207 162 161 132 86 72 59 91 266 209 214 264 201 218 237 243 245 247 249 239 231 210 189 185 180 183 183 183 185 180 179 181 184 166 153 150 153 152 147 138 128
255 233 217 151 105 125 139 114 35 314 270 252 186 221 254 221 220 222 239 251 254 259 247 220 194 187 185 185 187 186 186 186 181 181 184 184 173 168 165 164 162 158 155 155
199 247 204 188 171 167 188 166 178 206 230 269 228 238 253 244 259 262 260 265 278 273 253 228 206 195 190 189 188 188 189 185 180 182 184 181 174 176 173 170 166 168 167 161
193 237 230 201 177 151 169 213 178 159 259 282 260 266 291 263 262 253 256 265 268 266 249 233 211 197 192 191 192 191 188 183 182 182 179 178 177 180 175 171 167 165 158 152
172 225 258 150 117 192 159 153 131 167 205 252 270 257 251 225 234 242 250 254 264 267 251 230 209 199 194 193 190 188 186 184 179 179 180 180 179 179 173 170 168 164 158 154
176 198 220 156 192 185 153 170 173 172 178 189 273 267 209 210 221 230 241 248 261 266 252 228 208 193 184 180 183 187 186 179 179 181 179 176 177 174 171 175 173 168 162 160
184 174 226 229 232 207 194 186 167 180 216 204 241 267 189 207 226 233 252 264 266 260 239 213 195 182 182 186 188 191 190 187 185 180 178 178 175 174 177 178 175 170 167 167
156 168 211 283 246 203 215 208 201 198 174 199 225 262 352 145 254 252 255 266 261 245 220 199 192 193 196 196 195 196 195 191 183 179 180 179 180 182 183 180 175 173 171 168
162 178 204 215 205 179 200 208 200 194 216 231 235 253 248 240 269 271 259 252 244 230 218 211 211 209 205 203 201 200 199 191 184 182 184 187 187 186 184 179 177 177 175 173
175 209 224 242 227 184 197 203 203 209 219 229 245 252 255 219 234 249 256 258 254 244 228 221 219 214 208 207 207 204 201 193 187 187 192 194 187 184 181 180 179 178 179 179
194 218 220 243 236 219 227 227 219 221 227 235 251 259 259 239 229 245 248 248 252 248 239 230 223 215 212 210 209 205 204 196 188 193 196 188 182 182 183 182 179 178 179 178
206 211 222 247 240 225 236 231 224 221 219 217 238 253 263 254 238 242 249 246 246 246 244 236 225 219 216 213 207 205 203 188 189 196 192 185 183 185 184 180 179 182 182 177
215 221 234 251 236 239 242 223 214 223 230 224 236 252 255 248 245 248 246 245 249 248 247 243 234 227 221 212 204 199 183 183 191 195 192 187 184 185 180 180 185 185 181 183
217 222 234 240 247 253 259 229 192 209 238 230 233 248 258 259 282 271 245 233 246 252 252 250 242 235 221 204 191 178 179 182 188 195 195 189 184 182 182 186 188 184 180 184
215 217 231 239 244 239 241 223 180 168 242 239 220 237 250 251 254 266 281 251 279 295 294 285 276 249 221 197 168 171 180 184 195 197 191 180 179 182 186 187 182 176 178 181
205 215 225 237 246 247 244 174 133 180 237 237 209 227 240 228 233 278 27 357 338 323 321 323 326 316 242 164 156 171 179 195 192 169 160 165 173 178 175 169 162 160 163 163
206 216 222 229 239 241 193 153 185 214 212 201 212 218 215 220 259 10 25 15 3 357 357 7 34 36 38 115 146 161 180 168 140 143 151 158 160 158 155 157 155 157 163 169
217 216 222 224 239 259 180 201 221 189 201 209 205 205 178 169 164 108 58 35 25 20 18 25 56 59 46 59 110 132 133 127 131 138 146 149 150 153 157 161 163 165 172 181
238 220 223 243 248 244 235 238 233 213 214 210 194 182 175 164 146 122 91 61 48 40 38 46 67 68 53 46 61 86 112 124 130 137 140 143 150 155 159 165 170 177 183 190
234 208 223 243 254 273 258 236 227 201 186 176 169 169 164 145 134 124 102 74 62 57 52 60 73 76 64 56 54 50 76 113 118 122 127 136 145 153 160 167 180 186 194 199
206 201 216 239 231 221 255 240 199 189 197 187 157 128 106 123 124 111 95 81 76 69 68 72 70 72 64 59 51 32 32 93 117 120 126 134 139 145 153 160 165 206 201 212